Location: Az?znagar
(16.8373°N, 80.5091°E)
Time: 10:47:43
(UTC+00:00)

Cosmos 1782 - Pass Details

Date: 04 December 2021
Orbit: 537 x 548 km, 82.5° (Epoch: 16 January)

Event Time Altitude Azimuth Distance (km) Brightness Sun altitude
Exits shadow 00:23:58 - 334° (NNW) 2,557 5.8 -7.2°
Reaches altitude 10° 00:26:08 10° 320° (NW) 1,789 4.9 -6.7°
Maximum altitude 00:29:12 22° 269° (W) 1,205 4.0 -6.0°
Drops below altitude 10° 00:32:15 10° 217° (SW) 1,785 5.3 -5.4°
Sets 00:34:45 0° 202° (SSW) 2,675 6.3 -4.8°
